This is the latest recevied weather packets stored in our database for station/object F5OWB. If no packets are shown the sender has not sent any weather packets the latest 10 day(s).
| Time | Temp. | Humidity | Pressure | Rain* | Wind** | Luminosity | Snow |
|---|---|---|---|---|---|---|---|
| 1778149189 | 15.56° C | 72% | 1018.5 hPa | 0 mm | - | 752 W/m² | - |
| 1778149132 | 15.56° C | 74% | 1018.5 hPa | 0 mm | - | 758 W/m² | - |
| 1778149068 | 15.56° C | 72% | 1018.3 hPa | 0 mm | - | 761 W/m² | - |
| 1778149007 | 15.56° C | 72% | 1018.5 hPa | 0 mm | - | 761 W/m² | - |
| 1778148948 | 15.56° C | 75% | 1018.3 hPa | 0 mm | - | 770 W/m² | - |
| 1778148947 | 15.56° C | 75% | 1018.3 hPa | 0 mm | - | 770 W/m² | - |
| 1778148887 | 15.56° C | - | - | - | - | - | - |
| 1778148885 | 15.56° C | 71% | 1018.3 hPa | 0 mm | - | 772 W/m² | - |
| 1778148825 | 15.56° C | 72% | 1018.5 hPa | 0 mm | - | 772 W/m² | - |
| 1778148756 | 15.56° C | 71% | 1018.3 hPa | 0 mm | - | 782 W/m² | - |
| 1778148697 | 15.56° C | 72% | 1018.5 hPa | 0 mm | - | 789 W/m² | - |
| 1778148638 | 15.56° C | 71% | 1018.5 hPa | 0 mm | - | 795 W/m² | - |
| 1778148637 | 15.56° C | 71% | 1018.5 hPa | 0 mm | - | 795 W/m² | - |
| 1778148577 | 15.56° C | 73% | 1018.3 hPa | 0 mm | - | 789 W/m² | - |
| 1778148515 | 15.56° C | 72% | 1018.3 hPa | 0 mm | - | 810 W/m² | - |
| 1778148450 | 15.56° C | 72% | 1018.5 hPa | 0 mm | - | 807 W/m² | - |
| 1778148390 | 15.56° C | 72% | 1018.5 hPa | 0 mm | - | 798 W/m² | - |
| 1778148332 | 15.56° C | 72% | 1018.5 hPa | 0 mm | - | 791 W/m² | - |
| 1778148272 | 15.56° C | 71% | 1018.5 hPa | 0 mm | - | 793 W/m² | - |
| 1778148211 | 15.56° C | 70% | 1018.6 hPa | 0 mm | - | 784 W/m² | - |
| 1778148149 | 15.56° C | 72% | 1018.6 hPa | 0 mm | - | 777 W/m² | - |
| 1778148083 | 15.56° C | 74% | 1018.6 hPa | 0 mm | - | 772 W/m² | - |
| 1778148026 | 15.56° C | 75% | 1018.6 hPa | 0 mm | - | 766 W/m² | - |
| 1778147963 | 15.56° C | 73% | 1018.5 hPa | 0 mm | - | 763 W/m² | - |
| 1778147909 | 15° C | 72% | 1018.5 hPa | 0 mm | - | 761 W/m² | - |
* Rain latest hour (hover to see other rain measurements)
** Current wind speed in m/s (hover to see current wind gust speed)